Lid_Strength_Index
1 -1 -2 -2 -2 -2 -1 -1 -1 -1 -2 -2 -2 -2 -2 -2 -2 -2 -2 -2 -2 -2 -2 -1 -1 -1 -1 -1 -1 -1 -2 -2 -2 -1 -2 -1 -1 -2 -2 -2 -2 -1 -1
-0 -1 -2 -2 -2 -2 -1 -2 -2 -2 -2 -2 -2 -2 -2 -2 -2 -2 -2 -2 -2 -2 -2 -1 -1 -1 -1 -1 -1 -1 -1 -1 -2 -1 -2 -2 -2 -2 -2 -2 -2 -1 -1
-0 -1 -1 -2 -2 -2 -2 -2 -2 -2 -2 -2 -2 -2 -2 -2 -2 -2 -2 -2 -2 -2 -2 -1 -1 -1 -1 -1 -1 -1 -1 -1 -1 -1 -2 -1 -1 -2 -2 -2 -2 -2 -2
-1 -1 -1 -2 -2 -2 -2 -2 -2 -2 -2 -2 -1 -2 -2 -2 -2 -2 -2 -2 -2 -2 -2 -2 -1 -1 -1 -1 -1 -1 -1 -1 -1 -1 -1 -1 -1 -2 -2 -2 -1 -2 -2
-1 -1 -1 -2 -2 -2 -2 -2 -2 -2 -2 -2 -2 -1 -2 -1 -2 -2 -2 -2 -2 -2 -2 -2 -2 -1 -1 -1 -1 -1 -1 -2 -2 -1 -0 -0 -0 -1 -2 -2 -2 -2 -2
-0 -1 -1 -2 -2 -2 -2 -2 -2 -2 -2 -2 -2 -2 -1 -1 -1 -1 -2 -2 -2 -2 -2 -2 -2 -1 -1 -1 -1 -1 -2 -2 -2 -0 -0 -1 -0 -2 -2 -2 -2 -2 -2
-0 -1 -1 -2 -2 -2 -2 -2 -2 -2 -2 -2 -2 -1 -1 -1 -1 -1 -1 -1 -1 -2 -2 -2 -2 -2 -1 -1 -1 -1 -2 -2 -1 -0 -1 -0 -1 -3 -2 -2 -2 -2 -2
-0 -1 -1 -2 -2 -2 -2 -2 -2 -2 -2 -2 -2 -1 -1 -1 -1 -1 -1 -1 -1 -1 -1 -1 -1 -1 -1 -1 -1 -2 -2 -2 -1 -0 -0 0 -3 -3 -2 -2 -2 -2 -2
-0 -1 -1 -1 -2 -2 -2 -2 -1 -1 -1 -1 -1 -1 -2 -2 -2 -1 -1 -1 -1 -1 -1 -1 -1 -1 -1 -1 -1 -2 -2 -2 -0 -0 -0 -0 -3 -2 -2 -1 -1 -1 -1
1 0 -0 0 0 1 1 -0 0 0 0 -0 -0 -1 -1 -1 -1 -2 -1 -1 -1 -1 -1 -1 -1 -1 -1 -1 -1 -2 -2 -2 -0 -0 -1 -1 -3 -2 -2 -2 -1 -1 -1
1 2 2 3 1 1 2 1 -0 -0 -1 -2 -2 -2 -2 -1 -1 0 -1 -1 -1 -1 -1 -1 -1 -1 -1 -2 -2 -2 -2 -1 -0 -1 -1 -3 -3 -2 -2 -2 -1 -1 -1
2 1 1 -1 -1 -0 1 -1 -1 -1 -1 -3 -2 -3 -2 -2 -2 -1 -1 -1 -1 -1 -1 -1 -1 -1 -1 -1 -1 -2 -1 -1 -0 -1 -1 -2 -2 -2 -2 -2 -2 -2 -1
2 1 1 -0 -0 0 1 0 1 -0 -1 -1 -2 -2 -3 -2 -1 -2 -1 -1 -1 -1 -1 -1 -2 -1 -1 -0 -1 -0 -0 -1 -1 -0 -1 -2 -2 -2 -2 -1 -2 -2 -1
2 0 0 0 -0 -1 -0 0 -0 0 -1 -1 -1 -3 -2 -1 -1 -1 -1 -1 -1 -1 -0 -1 -1 -1 -1 -1 -1 -0 -0 -0 -0 -0 -1 -1 -1 -2 -1 -1 -1 -2 -2
1 0 -0 -1 -1 -1 -1 -1 -1 -1 -1 -2 -1 -2 -2 -2 -1 -1 -1 -1 -1 -1 -1 -0 -0 -0 -0 -1 -1 -1 -0 -0 -1 -1 -1 -1 -1 -1 -1 -1 -1 -1 -2
1 1 -0 -0 -1 -2 -1 -1 -1 -1 -1 -1 -1 -1 -1 -1 -1 -1 -1 -1 -0 -1 -1 -1 -0 -0 -0 -0 -0 -0 -0 -0 -1 -1 -1 -1 -1 -1 -2 -2 -2 -1 -2
1 0 0 -0 -1 -1 -1 -1 -1 -1 -0 -1 -1 -2 -1 -1 -1 -1 -0 -0 -0 -0 -1 -1 -1 -1 -0 -0 0 -0 -0 -0 -0 -0 -1 -1 -1 -2 -2 -2 -2 -2 -2
1 0 0 -0 -1 -1 -1 -1 -1 -2 -1 -1 -1 -1 -1 -0 -1 -0 -0 -0 -1 -0 -1 -0 0 0 0 0 0 0 0 -0 -0 -0 -0 -1 -1 -1 -1 -2 -2 -2 -2
1 0 0 -0 -0 -0 -1 -2 -2 -3 -2 -2 -1 -1 -1 -0 -0 -0 0 -0 -0 -1 -1 -0 0 0 1 1 1 0 0 0 0 -0 -0 -0 -1 -1 -1 -1 -2 -2 -2
1 -0 -0 -0 -0 -1 -1 -1 -0 -0 -1 -1 -0 -0 -1 -0 -1 -0 0 0 -0 -0 -0 -0 0 0 0 1 1 1 0 0 0 0 0 -0 -0 -1 -1 -1 -1 -1 -2
1 -0 0 0 -0 -0 0 1 1 1 0 -0 -2 -1 -1 -1 -1 -0 0 -0 -0 0 0 -0 0 1 1 1 2 2 1 1 1 0 0 -0 -0 -0 -0 -1 -0 -0 -1
0 0 0 0 -0 -0 -0 -0 -0 0 -0 -0 -1 -1 -1 -1 -1 -0 -1 -0 -0 0 0 0 0 1 1 1 3 3 5 3 2 1 0 0 0 -0 -0 -1 -0 -1 -1
1 0 1 -0 -0 -1 -1 -0 -0 -1 -0 1 1 0 -1 -1 -1 -1 -1 -1 -0 -0 1 0 0 1 2 1 1 3 6 6 4 2 1 1 1 0 -0 -0 -0 -0 -0
1 -0 0 -0 -0 -1 -1 0 0 1 2 1 1 -0 -1 -2 -1 -1 -1 -1 -1 -1 0 0 -0 0 1 3 1 1 1 2 5 6 2 1 1 1 0 -0 -0 -1 -1
0 0 1 -0 -0 -1 -1 -1 0 1 1 0 -0 0 -1 -1 -2 -1 -1 -1 -0 -0 -0 0 0 1 1 1 2 2 2 2 2 4 6 4 2 1 0 -0 -0 -0 -1
1 1 1 0 -0 -0 -0 -0 0 1 1 1 1 1 1 0 -1 -1 -1 -1 -1 -0 0 0 -0 0 1 1 1 1 2 3 3 4 5 4 4 2 1 0 0 -0 -1